San Luis Obispo, CA

4:20 PM PDT on September 25, 2017 (GMT -0700)
San Luis Obispo County-McChesney

Weather History for KSBP - May, 2014

Change the Weather History Date:

Friday, May 2, 2014

  Actual Average Record
Temperature  
Mean Temperature 76 °F -  
Max Temperature 98 °F 70 °F 99 °F (2004)
Min Temperature 55 °F 45 °F 34 °F (1990)
Cooling Degree Days 11    
Growing Degree Days 26 (Base 50)    
Moisture  
Dew Point 40 °F    
Average Humidity 33    
Maximum Humidity 83    
Minimum Humidity 10    
Precipitation  
Precipitation 0.00 in - - ()
Sea Level Pressure  
Sea Level Pressure 29.98 in    
Wind  
Wind Speed 9 mph (NW)    
Max Wind Speed 23 mph    
Max Gust Speed 37 mph    
Visibility 10 miles    
Events      
Averages and records for this station are not official NWS values.
T = Trace of Precipitation, MM = Missing Value Source: NWS Daily Summary

Daily Weather History Graph

Daily Weather History Graph

Search for Another Location

Airport or City:

Trip Planner

Search our weather history database for the weather conditions in past years. The results will help you decide how hot, cold, wet, or windy it might be!

Date:

Astronomy

May. 02, 2014 Rise Set
Actual Time 6:10 AM PDT 7:49 PM PDT
Civil Twilight 5:42 AM PDT 8:16 PM PDT
Nautical Twilight 5:10 AM PDT 8:49 PM PDT
Astronomical Twilight 4:35 AM PDT 9:24 PM PDT
Moon 8:54 AM PDT (5/2) 11:13 PM PDT (5/2)
Length of Visible Light 14h 33m
Length of Day
13h 39m
Waxing Crescent, 13% of the Moon is Illuminated
May 2
Waxing Crescent
May 6
First Quarter
May 14
Full
May 21
Last Quarter
May 28
New

Hourly Weather History & Observations

Time (PDT) Temp. Dew Point Humidity Pressure Visibility Wind Dir Wind Speed Gust Speed Precip Events Conditions
12:56 AM 62.1 °F 37.9 °F 41% 30.03 in 10.0 mi Variable 5.8 mph - N/A   Clear
1:56 AM 75.0 °F 35.1 °F 23% 30.02 in 10.0 mi NNW 10.4 mph - N/A   Clear
2:56 AM 77.0 °F 34.0 °F 21% 30.00 in 10.0 mi Variable 6.9 mph 23.0 mph N/A   Clear
3:43 AM 77.0 °F 33.8 °F 21% 30.01 in 10.0 mi NW 15.0 mph 36.8 mph N/A   Clear
3:56 AM 77.0 °F 32.0 °F 19% 30.00 in 10.0 mi NW 15.0 mph - N/A   Clear
4:56 AM 75.9 °F 30.9 °F 19% 29.99 in 10.0 mi NNW 11.5 mph 17.3 mph N/A   Clear
5:56 AM 73.0 °F 33.1 °F 23% 30.00 in 10.0 mi Variable 3.5 mph - N/A   Clear
6:56 AM 66.0 °F 37.9 °F 36% 30.00 in 10.0 mi Calm Calm - N/A   Clear
7:56 AM 75.9 °F 39.9 °F 27% 30.00 in 10.0 mi Calm Calm - N/A   Clear
8:56 AM 82.9 °F 37.9 °F 20% 30.00 in 10.0 mi Calm Calm - N/A   Clear
10:56 AM 93.0 °F 36.0 °F 13% 29.99 in 10.0 mi North 4.6 mph - N/A   Clear
11:56 AM 97.0 °F 30.9 °F 10% 29.98 in 10.0 mi Calm Calm - N/A   Clear
12:56 PM 93.0 °F 46.0 °F 20% 29.96 in 10.0 mi NW 13.8 mph - N/A   Clear
1:56 PM 86.0 °F 42.1 °F 21% 29.96 in 10.0 mi NNW 23.0 mph 31.1 mph N/A   Clear
2:56 PM 86.0 °F 39.9 °F 20% 29.95 in 10.0 mi NNW 21.9 mph 29.9 mph N/A   Clear
3:56 PM 82.9 °F 41.0 °F 23% 29.94 in 10.0 mi NW 23.0 mph - N/A   Clear
4:56 PM 82.9 °F 39.0 °F 21% 29.94 in 10.0 mi NNW 20.7 mph 27.6 mph N/A   Clear
5:56 PM 82.0 °F 39.9 °F 22% 29.93 in 10.0 mi NW 13.8 mph - N/A   Clear
6:56 PM 73.0 °F 45.0 °F 37% 29.93 in 10.0 mi NNW 17.3 mph - N/A   Clear
7:56 PM 64.9 °F 46.9 °F 52% 29.94 in 10.0 mi NW 10.4 mph - N/A   Clear
8:56 PM 61.0 °F 48.9 °F 64% 29.96 in 10.0 mi WNW 9.2 mph - N/A   Clear
9:56 PM 57.9 °F 50.0 °F 75% 29.98 in 10.0 mi WNW 5.8 mph - N/A   Clear
10:56 PM 55.0 °F 50.0 °F 83% 29.98 in 10.0 mi WNW 5.8 mph - N/A   Clear
11:56 PM 55.0 °F 50.0 °F 83% 29.98 in 10.0 mi West 3.5 mph - N/A   Clear